Location: Dillon
(41.1766°N, 107.0923°W)
Time: 07:39:56
(UTC+00:00)

DIWATA 2B (PO-101) - Pass Details

Date: 30 June 2022
Orbit: 583 x 599 km, 98.0° (Epoch: 15 August)

Event Time Altitude Azimuth Distance (km) Brightness Sun altitude
Exits shadow 09:33:45 37° 231° (SW) 942 ? -17.8°
Maximum altitude 09:34:35 41° 261° (W) 870 ? -17.7°
Drops below altitude 10° 09:38:36 10° 333° (NNW) 1,947 ? -17.2°
Sets 09:40:53 0° 340° (NNW) 2,854 ? -17.0°
